Flag for Norway Weather past 2 weeks in Finse, Norway

Now
44 °F

Quite cool.


Feels Like: 40 °F
Forecast: 38 / 51 °F
Wind: 7 mph from West

Location: Finsevatn

Current Time: Aug 20, 2014 at 8:31:05 PM

Latest Report: Aug 20, 2014 at 8:00 PM


Visibility: N/A

Pressure: 29.53 "Hg

Humidity: 84%

Dew point: 39 °F

Location of FinseLocation

Historic Weather in Finse — Graph

°F

Finse temperature yesterday

Maximum temperature yesterday: 48 °F (at 4:00 PM)
Minimum temperature yesterday: 43 °F (at 5:00 AM)
Average temperature yesterday: 45 °F

Past Weeks' High & Low Weather Summary

 TemperatureHumidityPressure
High53 °F (Aug 15, 4:00 PM)92% (Aug 16, 2:00 AM)29.73 "Hg (Aug 16, 2:00 AM)
Low41 °F (Aug 16, 9:00 AM)62% (Aug 15, 5:00 PM)29.12 "Hg (Aug 18, 2:00 PM)
Average45 °F81%29.39 "Hg
* Reported Aug 5 7:00 PM — Aug 20 7:00 PM, Finse, Weather by CustomWeather, © 2014

Note: Actual official high and low records may vary slightly from our data, if they occured in-between our weather recording intervals... More about our weather records

Advertising

Finse weather history for previous 24 hours

 ConditionsComfort  
Time TempWeatherWind HumidityBarometerVisibility
7:00 PM
Aug 20
45 °FQuite cool.8 mph79%29.50 "HgN/A
6:00 PM45 °FCool.8 mph79%29.50 "HgN/A
5:00 PM45 °FQuite cool.9 mph82%29.50 "HgN/A
4:00 PM46 °FCool.8 mph82%29.47 "HgN/A
3:00 PM47 °FCool.5 mph71%29.47 "HgN/A
2:00 PM48 °FCool.6 mph66%29.44 "HgN/A
1:00 PM47 °FCool.6 mph74%29.44 "HgN/A
12:00 PM47 °FCool.6 mph77%29.44 "HgN/A
11:00 AM46 °FCool.5 mph77%29.44 "HgN/A
10:00 AM46 °FCool.5 mph78%29.41 "HgN/A
9:00 AM45 °FQuite cool.7 mph80%29.41 "HgN/A
8:00 AM44 °FQuite cool.6 mph78%29.41 "HgN/A
7:00 AM44 °FQuite cool.5 mph80%29.41 "HgN/A
6:00 AM44 °FQuite cool.6 mph81%29.41 "HgN/A
5:00 AM44 °FQuite cool.6 mph84%29.41 "HgN/A
4:00 AM44 °FQuite cool.7 mph83%29.41 "HgN/A
3:00 AM44 °FQuite cool.7 mph81%29.41 "HgN/A
2:00 AM44 °FQuite cool.7 mph81%29.41 "HgN/A
1:00 AM44 °FQuite cool.6 mph83%29.38 "HgN/A
12:00 AM45 °FQuite cool.7 mph81%29.38 "HgN/A
11:00 PM
Aug 19
45 °FQuite cool.7 mph80%29.38 "HgN/A
10:00 PM45 °FCool.6 mph81%29.35 "HgN/A
9:00 PM46 °FCool.8 mph79%29.35 "HgN/A
8:00 PM47 °FCool.7 mph75%29.32 "HgN/A
Weather by CustomWeather, © 2014

See weather overviewHow to use our weather pages